Location: Neuvy Saint Sepulchre
(46.5953°N, 1.8122°E)
Time: 06:45:20
(UTC+01:00)

ISS - Pass Details

Date: 21 November 2023
Orbit: 416 x 417 km, 51.6° (Epoch: 01 December)

Event Time Altitude Azimuth Distance (km) Brightness Sun altitude
Rises 18:11:34 0° 237° (WSW) 2,350 1.9 -9.9°
Reaches altitude 10° 18:13:39 10° 236° (SW) 1,491 0.4 -10.2°
Maximum altitude 18:17:00 75° 151° (SSE) 437 -3.8 -10.8°
Enters shadow 18:19:23 18° 67° (ENE) 1,111 -2.3 -11.2°
